Regional Weather Roundup
Issued by NWS Newport/Morehead, NC

Current Version | Previous Version | Text Only | Print | Product List | Glossary Off
Versions: 1 2 3 4 5 6 7 8 9 10 11 12 13 14 15 16 17 18 19 20 21 22 23 24 25 26 27 28 29 30 31 32 33 34 35 36 37 38 39 40 41 42 43 44 45 46 47 48 49 50
558 ASUS42 KMHX 222125 RWRMHX WEATHER ROUNDUP FOR EASTERN NORTH CAROLINA NATIONAL WEATHER SERVICE NEWPORT/MOREHEAD CITY NC 400 PM EST WED NOV 22 2017 NOTE: "FAIR" INDICATES FEW OR NO CLOUDS BELOW 12,000 FEET WITH NO SIGNIFICANT WEATHER AND/OR OBSTRUCTIONS TO VISIBILITY NCZ015>017-031-032-045>047-102-103-222200- NORTH COAST CITY SKY/WX TMP DP RH WIND PRES REMARKS EDENTON CLEAR 62 48 59 CALM 29.99R ELIZABETH CITY CLEAR 60 50 69 N10 29.97R KITTY HAWK CLEAR 57 44 60 N8G17 29.96R MANTEO CLEAR 57 46 65 NE12G17 29.98R $$ NCZ045>047-081-094-103-104-222200- CENTRAL COAST CITY SKY/WX TMP DP RH WIND PRES REMARKS FRISCO PTCLDY 59 49 69 N12G23 29.95R $$ NCZ095-097-098-100-101-222200- SOUTHERN COAST CITY SKY/WX TMP DP RH WIND PRES REMARKS BEAUFORT CLEAR 66 49 54 N9 29.95R CEDAR ISLAND NOT AVBL JACKSONVILLE SUNNY 66 46 48 N12 29.95R PINEY ISLAND NOT AVBL WILMINGTON SUNNY 69 47 45 NW13 29.96R $$ NCZ011>013-027>030-043-044-078>080-089-090>093-098-222200- COASTAL PLAIN CITY SKY/WX TMP DP RH WIND PRES REMARKS AHOSKIE CLEAR 59 40 48 N3 29.99R CLINTON CLOUDY 63 42 45 N7 29.99R ELIZABETHTOWN NOT AVBL GOLDSBORO MOSUNNY 64 38 38 NW10 29.97R GREENVILLE PTCLDY 63 41 45 N6 30.00S HAVELOCK NOT AVBL KENANSVILLE SUNNY 63 37 39 NW12 29.98R KINSTON CLEAR 64 39 39 N8 29.98R NEW BERN CLEAR 63 48 58 N9 29.96R RICHLANDS SUNNY 65 43 44 VRB7 29.97R ROCKY MOUNT CLOUDY 61 37 41 NW7 30.00R WASHINGTON PTCLDY 63 45 51 NW6 29.97R WHITEVILLE SUNNY 66 42 40 N3 29.97R $$ AMZ130-135-150-152-154-156-158-170-250-252-270-ANZ085-086-088-633-658-670-222200- MARINE OBSERVATIONS STATION/POSITION TIME TEMP WIND PRES WAVE SWELL AIR SEA DIR/SP/G HT/PER HT/PER (UTC) (F) (DEG/KT/KT) (MB) (FT/S) (FT/S) CHESAPEAKE LIGHT NOT AVBL 64 E VA BEACH 2050 59 62 340/ 21/ 25 1014.0 8/ 6 DUCK 2100 59 60 10/ 19/ 22 1014.3 2 E DUCK 2100 61 N/A 5/ 5 OREGON INLET 2100 58 57 350/ 13/ 20 1014.7 13E OREGON INLT 2048 65 N/A 7/ 5 3/ 9 HATTERAS CG 2100 59 60 20/ 19/ 23 1014.1 DIAMOND BUOY 2110 62 74 10/ 23/ 31 1014.1 CAPE LOOKOUT 2100 10/ 10/ 12 1014.2 BEAUFORT LAB 2100 65 60 350/ 8/ 10 1014.0 30 SE NEW RVR IN 2108 66 66 10/ 10/ 14 1014.4 30 SE NEW RVR IN 2100 66 N/A 5/ 8 2/11 27 SE WRIGHTSVLE 2108 67 68 20/ 10/ 17 1014.2 5 SE WRIGHTSVLE 2008 67 64 360/ 8/ 12 1013.4 225 S CAPE HAT 2050 74 76 340/ 14/ 17 1012.0 6/ 9 5/ 9 41 SE CHARLESTON 2110 67 74 10/ 10/ 12 1014.6 $$

USA.gov is the U.S. government's official web portal to all federal, state and local government web resources and services.